Terminal Aerodrome Forecast
Issued by NWS

Home | Current Version | Previous Version | Text Only | Print | Product List | Glossary On
Versions: 1 2 3 4 5 6 7 8 9 10 11 12 13
000
FTUS45 KTFX 121100
TAFHLN
TAF
KHLN 121120Z 1212/1312 VRB05KT P6SM SCT120
     FM130000 03005KT P6SM VCTS SCT060CB BKN100
     FM130300 VRB06KT P6SM SKC=

USA.gov is the U.S. government's official web portal to all federal, state and local government web resources and services.